EDT,Max TemperatureF,Mean TemperatureF,Min TemperatureF,Max Dew PointF,MeanDew PointF,Min DewpointF,Max Humidity, Mean Humidity, Min Humidity, Max Sea Level PressureIn, Mean Sea Level PressureIn, Min Sea Level PressureIn, Max VisibilityMiles, Mean VisibilityMiles, Min VisibilityMiles, Max Wind SpeedMPH, Mean Wind SpeedMPH, Max Gust SpeedMPH,PrecipitationIn, CloudCover, Events, WindDirDegrees
2013-3-1,38,36,33,34,31,30,96,89,82,30.06,30.02,29.97,10,6,1,13,5,15,0.06,8,Rain-Snow,314
2013-3-2,33,31,29,30,24,20,89,76,63,30.15,30.09,30.03,10,8,2,13,7,17,0.01,8,Snow,352
2013-3-3,39,33,26,23,18,14,81,59,37,30.15,30.12,30.09,10,10,6,14,7,18,T,4,Snow,305
2013-3-4,45,34,22,23,18,15,81,56,31,30.18,30.09,29.95,10,10,10,13,5,17,0.00,4,,120
2013-3-5,47,39,31,45,35,24,100,71,41,29.93,29.77,29.61,10,4,1,31,9,41,0.43,8,Rain-Snow,261
2013-3-6,35,33,31,28,27,26,85,80,75,30.32,30.11,29.82,10,8,2,23,12,29,T,8,Snow,309
2013-3-7,38,35,32,28,27,25,82,71,59,30.42,30.38,30.31,10,9,7,8,4,12,0.00,8,,342
2013-3-8,49,39,28,28,25,22,85,62,39,30.48,30.42,30.36,10,10,8,13,4,15,0.00,2,,65
2013-3-9,62,48,33,32,28,26,75,51,27,30.35,30.20,30.05,10,10,10,12,4,17,0.00,2,,131
2013-3-10,70,59,48,48,33,28,72,47,22,30.03,29.94,29.81,10,10,7,21,8,29,0.06,2,Rain,164
2013-3-11,55,47,38,54,44,30,100,81,62,29.94,29.78,29.70,10,7,2,23,11,36,0.99,8,Rain,218
2013-3-12,50,43,36,34,26,21,70,55,39,30.13,30.04,29.96,10,10,8,23,11,31,T,5,Rain,267
2013-3-13,38,33,27,34,20,13,82,63,43,30.41,30.25,30.10,10,10,7,25,13,35,T,6,Snow,287
2013-3-14,46,35,24,31,21,17,76,54,31,30.43,30.34,30.25,10,10,9,13,5,20,T,3,Rain,227
2013-3-15,62,48,33,40,34,29,82,61,39,30.22,29.99,29.77,10,10,10,9,4,13,0.00,1,,179
2013-3-16,71,57,42,48,44,38,82,63,44,30.01,29.78,29.67,10,9,5,23,11,31,0.03,2,Rain,276
2013-3-17,42,38,34,39,34,32,96,89,82,30.12,30.06,29.93,10,4,1,15,7,20,1.09,8,Rain-Snow,46
2013-3-18,52,44,36,49,40,34,96,83,70,29.92,29.75,29.67,10,6,1,22,8,29,0.84,8,Rain-Thunderstorm,289
2013-3-19,49,40,30,34,21,8,85,52,19,30.19,30.08,29.92,10,10,10,25,11,32,0.00,1,,271
2013-3-20,44,35,26,21,16,10,69,50,30,30.17,30.10,30.04,10,10,10,24,11,32,0.00,2,,278
2013-3-21,35,29,22,12,10,8,60,48,35,30.10,30.06,30.03,10,10,10,16,6,21,0.00,2,,313
2013-3-22,44,33,22,18,14,12,77,53,28,30.13,30.07,30.02,10,10,10,9,2,15,0.00,3,,175
2013-3-23,56,48,39,25,21,15,44,37,29,30.06,29.99,29.85,10,10,10,14,4,21,0.00,4,,59
2013-3-24,46,41,35,38,33,22,92,65,38,29.83,29.56,29.43,10,6,2,18,8,25,0.55,8,Rain-Thunderstorm,66
2013-3-25,37,35,32,32,29,27,89,82,75,30.04,29.76,29.50,10,6,2,23,15,31,T,8,Rain-Snow,274
2013-3-26,42,37,32,31,28,21,89,67,45,30.32,30.15,30.03,10,6,1,18,9,22,0.01,8,Snow,302
2013-3-27,46,37,28,25,22,20,75,56,37,30.38,30.34,30.32,10,10,10,14,5,17,0.00,3,,291
2013-3-28,52,39,26,26,23,20,84,57,29,30.41,30.36,30.32,10,10,10,9,2,15,0.00,0,,327
2013-3-29,56,44,32,40,32,26,83,62,41,30.35,30.29,30.22,10,10,8,12,3,15,0.00,2,,197
2013-3-30,61,47,33,42,36,30,100,68,35,30.25,30.16,29.96,10,6,0,14,3,18,T,3,Fog-Rain,146
2013-3-31,61,55,48,48,46,41,93,72,51,29.93,29.87,29.83,10,7,1,17,6,23,0.06,6,Rain,272